Location: Christianberg
(48.9086°N, 14.0209°E)
Time: 04:17:58
(UTC+00:00)

FENGYUN 1C DEB - Pass Details

Date: 06 February 2022
Orbit: 832 x 1169 km, 98.6° (Epoch: 26 May)

Event Time Altitude Azimuth Distance (km) Brightness Sun altitude
Rises 17:59:23 0° 6° (N) 3,587 ? -18.3°
Reaches altitude 10° 18:02:07 10° 355° (N) 2,690 ? -18.8°
Maximum altitude 18:06:59 26° 301° (WNW) 1,849 ? -19.6°
Drops below altitude 10° 18:12:09 10° 247° (WSW) 2,867 ? -20.4°
Sets 18:15:09 0° 236° (SW) 3,871 ? -20.9°
